TimeEST,TemperatureF,Dew PointF,Humidity,Sea Level PressureIn,VisibilityMPH,Wind Direction,Wind SpeedMPH,Gust SpeedMPH,PrecipitationIn,Events,Conditions,WindDirDegrees,DateUTC
12:00 AM,74,69,79,30.04,,South,12.7,,,,Overcast,180,2013-05-03 14:00:00
12:00 AM,75.2,68.0,78,30.04,6.2,South,12.7,-,N/A,,Mostly Cloudy,180,2013-05-03 14:00:00
1:00 AM,74,69,80,30.03,,South,12.7,,,,,180,2013-05-03 15:00:00
1:00 AM,73.4,69.8,88,30.01,6.2,South,12.7,-,N/A,,Mostly Cloudy,180,2013-05-03 15:00:00
2:00 AM,73.4,69.8,88,30.01,6.2,South,12.7,-,N/A,,Scattered Clouds,180,2013-05-03 16:00:00
2:30 AM,75.2,68.0,78,30.01,6.2,South,10.4,-,N/A,Rain,Light Rain Showers,170,2013-05-03 16:30:00
3:00 AM,74,69,78,30.01,,South,11.5,,,,Overcast,170,2013-05-03 17:00:00
3:00 AM,75.2,68.0,78,30.01,6.2,South,11.5,-,N/A,Rain,Light Rain Showers,170,2013-05-03 17:00:00
3:30 AM,73.4,69.8,88,30.01,6.2,South,13.8,-,N/A,,Mostly Cloudy,180,2013-05-03 17:30:00
4:00 AM,74,68,78,30.01,,South,13.8,,,,,170,2013-05-03 18:00:00
4:00 AM,73.4,68.0,83,29.98,6.2,South,13.8,-,N/A,Rain,Light Rain Showers,170,2013-05-03 18:00:00
4:30 AM,73.4,68.0,83,30.01,-9999.0,South,12.7,-,N/A,,Overcast,170,2013-05-03 18:30:00
5:00 AM,73.4,68.0,83,30.01,6.2,South,13.8,-,N/A,,Scattered Clouds,170,2013-05-03 19:00:00
5:30 AM,73.4,68.0,83,30.01,-9999.0,South,11.5,-,N/A,,Scattered Clouds,170,2013-05-03 19:30:00
6:00 AM,74,69,78,30.02,16,South,12.7,,,,Partly Cloudy,170,2013-05-03 20:00:00
6:00 AM,73.4,68.0,83,30.01,6.2,South,12.7,-,N/A,,Partly Cloudy,170,2013-05-03 20:00:00
6:30 AM,73.4,68.0,83,30.04,6.2,South,11.5,-,N/A,,Partly Cloudy,170,2013-05-03 20:30:00
7:00 AM,74,68,77,30.05,,South,11.5,,,,,170,2013-05-03 21:00:00
7:00 AM,73.4,68.0,83,30.04,6.2,South,11.5,-,N/A,,Scattered Clouds,170,2013-05-03 21:00:00
7:30 AM,75.2,69.8,83,30.06,6.2,SSE,11.5,-,N/A,,Scattered Clouds,160,2013-05-03 21:30:00
8:00 AM,75.2,69.8,83,30.06,6.2,South,12.7,-,N/A,,Mostly Cloudy,170,2013-05-03 22:00:00
8:30 AM,75.2,69.8,83,30.06,6.2,South,10.4,-,N/A,,Mostly Cloudy,180,2013-05-03 22:30:00
9:00 AM,76,69,74,30.09,19,South,9.2,,,,Mostly Cloudy,180,2013-05-03 23:00:00
9:00 AM,75.2,69.8,83,30.06,6.2,South,9.2,-,N/A,,Mostly Cloudy,180,2013-05-03 23:00:00
9:30 AM,77.0,69.8,78,30.09,6.2,South,10.4,-,N/A,,Mostly Cloudy,180,2013-05-03 23:30:00
10:00 AM,78,71,72,30.10,,South,13.8,,,,,170,2013-05-04 00:00:00
10:00 AM,77.0,71.6,83,30.09,6.2,South,13.8,-,N/A,,Mostly Cloudy,170,2013-05-04 00:00:00
10:30 AM,82.4,71.6,70,30.06,6.2,SSE,17.3,-,N/A,,Mostly Cloudy,150,2013-05-04 00:30:00
11:00 AM,80.6,71.6,74,30.06,6.2,SSE,18.4,-,N/A,,Scattered Clouds,150,2013-05-04 01:00:00
11:30 AM,80.6,69.8,70,30.04,6.2,SE,15.0,-,N/A,,Scattered Clouds,130,2013-05-04 01:30:00
12:00 PM,78,70,71,30.05,16,SE,19.6,,,Rain,Light Rain Showers,140,2013-05-04 02:00:00
12:00 PM,77.0,69.8,78,30.04,6.2,SE,19.6,-,N/A,,Scattered Clouds,130,2013-05-04 02:00:00
12:30 PM,80.6,69.8,70,30.04,6.2,SE,16.1,-,N/A,,Scattered Clouds,130,2013-05-04 02:30:00
1:00 PM,83,70,56,30.03,,SE,20.7,,,,,130,2013-05-04 03:00:00
1:00 PM,82.4,69.8,66,30.01,6.2,SE,20.7,-,N/A,,Scattered Clouds,130,2013-05-04 03:00:00
1:30 PM,80.6,68.0,65,30.01,6.2,SE,18.4,-,N/A,Rain,Light Rain Showers,140,2013-05-04 03:30:00
2:00 PM,80.6,68.0,65,30.01,6.2,SSE,15.0,-,N/A,,Scattered Clouds,150,2013-05-04 04:00:00
2:30 PM,80.6,68.0,65,29.98,6.2,South,11.5,-,N/A,,Scattered Clouds,170,2013-05-04 04:30:00
3:00 PM,78,69,68,29.99,16,South,11.5,,,,Mostly Cloudy,170,2013-05-04 05:00:00
3:00 PM,77.0,69.8,78,29.98,6.2,South,11.5,-,N/A,,Scattered Clouds,170,2013-05-04 05:00:00
3:30 PM,73.4,69.8,88,29.98,6.2,South,11.5,-,N/A,,Mostly Cloudy,190,2013-05-04 05:30:00
4:00 PM,74,69,79,30.00,,South,10.4,,,,,180,2013-05-04 06:00:00
4:00 PM,73.4,69.8,88,29.98,6.2,South,10.4,-,N/A,Rain,Light Rain Showers,180,2013-05-04 06:00:00
4:08 PM,73.4,69.8,88,29.98,6.2,South,10.4,-,N/A,Rain,Light Rain Showers,180,2013-05-04 06:08:00
4:30 PM,73.4,69.8,88,29.98,6.2,South,8.1,-,N/A,,Mostly Cloudy,190,2013-05-04 06:30:00
5:00 PM,73.4,68.0,83,30.01,6.2,South,12.7,-,N/A,,Mostly Cloudy,180,2013-05-04 07:00:00
5:30 PM,73.4,68.0,83,30.01,6.2,South,10.4,-,N/A,,Mostly Cloudy,190,2013-05-04 07:30:00
6:00 PM,73,66,74,30.01,,South,10.4,,,,,180,2013-05-04 08:00:00
6:00 PM,73.4,66.2,78,30.01,6.2,South,10.4,-,N/A,,Mostly Cloudy,180,2013-05-04 08:00:00
6:30 PM,73.4,66.2,78,30.01,6.2,South,11.5,-,N/A,,Mostly Cloudy,190,2013-05-04 08:30:00
7:00 PM,73,67,76,30.03,,South,11.5,,,,,170,2013-05-04 09:00:00
7:00 PM,73.4,66.2,78,30.01,6.2,South,11.5,-,N/A,,Mostly Cloudy,170,2013-05-04 09:00:00
7:30 PM,73.4,68.0,83,30.04,6.2,South,12.7,-,N/A,Rain,Light Rain Showers,170,2013-05-04 09:30:00
7:50 PM,71.6,68.0,88,30.04,3.1,South,13.8,-,N/A,Rain,Light Rain Showers,180,2013-05-04 09:50:00
8:00 PM,69.8,68.0,94,30.04,4.3,South,12.7,-,N/A,Rain,Light Rain Showers,180,2013-05-04 10:00:00
8:10 PM,71.6,68.0,88,30.06,3.1,South,10.4,-,N/A,Rain,Light Rain Showers,180,2013-05-04 10:10:00
8:30 PM,71.6,68.0,88,30.06,5.0,South,8.1,-,N/A,Rain,Light Rain Showers,190,2013-05-04 10:30:00
8:41 PM,71.6,68.0,88,30.04,6.2,SSW,8.1,-,N/A,Rain,Light Rain Showers,200,2013-05-04 10:41:00
9:00 PM,72,68,83,30.05,,SSW,9.2,,,,Overcast,200,2013-05-04 11:00:00
9:00 PM,71.6,68.0,88,30.04,6.2,SSW,9.2,-,N/A,,Mostly Cloudy,200,2013-05-04 11:00:00
9:30 PM,71.6,68.0,88,30.04,6.2,South,8.1,-,N/A,,Mostly Cloudy,170,2013-05-04 11:30:00
10:00 PM,72,69,85,30.07,,South,11.5,,,,,170,2013-05-04 12:00:00
10:00 PM,71.6,68.0,88,30.06,3.1,South,11.5,-,N/A,Rain,Light Rain Showers,170,2013-05-04 12:00:00
10:30 PM,71.6,68.0,88,30.06,2.5,SSW,10.4,-,N/A,Rain,Rain Showers,200,2013-05-04 12:30:00
11:00 PM,71.6,69.8,94,30.04,4.3,South,12.7,-,N/A,Rain,Light Rain Showers,190,2013-05-04 13:00:00
11:08 PM,71.6,69.8,94,30.04,5.0,South,10.4,-,N/A,Rain,Light Rain Showers,190,2013-05-04 13:08:00
11:30 PM,73.4,69.8,88,30.04,6.2,South,12.7,-,N/A,Rain,Light Rain Showers,190,2013-05-04 13:30:00
11:56 PM,71.6,68.0,88,30.04,3.7,SSW,10.4,-,N/A,Rain,Light Rain Showers,200,2013-05-04 13:56:00